User: anonymous   Login
Location: Mentone
(34.5413°N, 85.5351°W)
Time: 17:56:25
(UTC-06:00)
Language:

ERBS - Orbit

View from above orbital plane
View from above orbital plane
View from above satellite
View from above satellite

Ground track
Ground track

The orbit data is extracted from the following two-line orbital elements,

1 15354U 84108B   18050.57147978 +.00003162 +00000-0 +73736-4 0  9993
2 15354 057.0077 151.9191 0008363 186.5657 173.5290 15.45340897836157
Epoch (UTC): 19 February 2018 13:42:55
Eccentricity: 0.0008363
inclination: 57.0077°
perigee height: 424 km
apogee height: 436 km
right ascension of ascending node: 151.9191°
argument of perigee: 186.5657°
revolutions per day: 15.45340897
mean anomaly at epoch: 173.5290°
orbit number at epoch: 83615

The dashed part of the orbit path shows where the satellite is in the earth's shadow,  

DLR